Station Historical Data
Daily Summary for October 10, 2017 Units:  English    Metric   Both
Next Day »
Daily Weekly Monthly Yearly Custom
  High: Low: Average:
Temperature: 73.7 °F 55.5 °F 61.7 °F
Dew Point: 34.3 °F 24.0 °F 29.8 °F
Humidity: 43% 16% 31%
Wind Speed: 14.0mph 0.0mph 2.5mph
Wind Gust: 16.0mph - -
Wind- - SE
Pressure: 30.00 in 29.90 in -
Precipitation: 0.00 in    
Historical Graphs
 
 
Tabular Data for October 10, 2017
Time Temperature Dew Point Pressure Wind Wind Speed Wind Gust Humidity Rainfall Rate (Hourly) solar Conditions
00:09 56.5 °F 34.3 °F 30.00 in ESE 1.0 mph 7.0 mph 43% 0.00 in 0.00 W/m2
00:14 56.5 °F 34.3 °F 30.00 in ESE 1.0 mph 7.0 mph 43% 0.00 in 0.00 W/m2
00:19 56.4 °F 34.2 °F 30.00 in Calm   9.0 mph 43% 0.00 in 0.00 W/m2
00:29 56.2 °F 34.0 °F 30.00 in ESE 8.0 mph 9.0 mph 43% 0.00 in 0.00 W/m2
00:34 56.2 °F 34.0 °F 30.00 in ESE 2.0 mph 9.0 mph 43% 0.00 in 0.00 W/m2
00:39 56.2 °F 34.0 °F 30.00 in Calm   8.0 mph 43% 0.00 in 0.00 W/m2
00:44 56.2 °F 33.4 °F 30.00 in ESE 1.0 mph 7.0 mph 42% 0.00 in 0.00 W/m2
00:49 56.2 °F 33.4 °F 30.00 in ESE 5.0 mph 8.0 mph 42% 0.00 in 0.00 W/m2
00:54 56.2 °F 33.4 °F 30.00 in ESE 5.0 mph 12.0 mph 42% 0.00 in 0.00 W/m2
00:59 56.2 °F 33.4 °F 30.00 in ESE 2.0 mph 11.0 mph 42% 0.00 in 0.00 W/m2
01:04 56.2 °F 33.4 °F 30.00 in ESE 6.0 mph 15.0 mph 42% 0.00 in 0.00 W/m2
01:09 56.2 °F 33.4 °F 29.99 in ESE 1.0 mph 15.0 mph 42% 0.00 in 0.00 W/m2
01:14 56.2 °F 33.4 °F 30.00 in East 4.0 mph 14.0 mph 42% 0.00 in 0.00 W/m2
01:19 56.2 °F 32.8 °F 30.00 in East 6.0 mph 14.0 mph 41% 0.00 in 0.00 W/m2
01:29 56.3 °F 32.9 °F 29.99 in Calm   14.0 mph 41% 0.00 in 0.00 W/m2
01:34 56.3 °F 32.9 °F 30.00 in ESE 8.0 mph 15.0 mph 41% 0.00 in 0.00 W/m2
01:39 56.2 °F 32.8 °F 30.00 in ESE 7.0 mph 16.0 mph 41% 0.00 in 0.00 W/m2
01:44 56.1 °F 32.7 °F 30.00 in East 7.0 mph 15.0 mph 41% 0.00 in 0.00 W/m2
01:55 56.1 °F 32.7 °F 30.00 in Calm   15.0 mph 41% 0.00 in 0.00 W/m2
02:00 56.0 °F 32.7 °F 30.00 in East 5.0 mph 15.0 mph 41% 0.00 in 0.00 W/m2
02:05 56.0 °F 32.0 °F 30.00 in East 6.0 mph 13.0 mph 40% 0.00 in 0.00 W/m2
02:10 56.0 °F 32.0 °F 30.00 in ESE 14.0 mph 14.0 mph 40% 0.00 in 0.00 W/m2
02:15 56.0 °F 32.0 °F 30.00 in East 8.0 mph 13.0 mph 40% 0.00 in 0.00 W/m2
02:20 56.0 °F 32.0 °F 30.00 in East 4.0 mph 13.0 mph 40% 0.00 in 0.00 W/m2
02:25 56.0 °F 32.0 °F 30.00 in Calm   14.0 mph 40% 0.00 in 0.00 W/m2
02:30 55.9 °F 32.0 °F 30.00 in East 6.0 mph 11.0 mph 40% 0.00 in 0.00 W/m2
02:35 55.9 °F 31.3 °F 30.00 in East 5.0 mph 11.0 mph 39% 0.00 in 0.00 W/m2
02:40 55.9 °F 31.3 °F 29.99 in ESE 1.0 mph 16.0 mph 39% 0.00 in 0.00 W/m2
02:45 55.8 °F 31.2 °F 29.99 in East 6.0 mph 11.0 mph 39% 0.00 in 0.00 W/m2
02:50 55.8 °F 31.2 °F 29.99 in East 9.0 mph 11.0 mph 39% 0.00 in 0.00 W/m2
02:55 55.8 °F 31.2 °F 29.99 in ESE 7.0 mph 14.0 mph 39% 0.00 in 0.00 W/m2
03:05 55.8 °F 31.2 °F 29.99 in ESE 6.0 mph 11.0 mph 39% 0.00 in 0.00 W/m2
03:10 55.8 °F 30.6 °F 29.99 in Calm   13.0 mph 38% 0.00 in 0.00 W/m2
03:15 55.8 °F 30.6 °F 29.99 in East 4.0 mph 9.0 mph 38% 0.00 in 0.00 W/m2
03:20 55.8 °F 30.6 °F 29.98 in East 1.0 mph 12.0 mph 38% 0.00 in 0.00 W/m2
03:25 55.7 °F 30.5 °F 29.98 in ESE 9.0 mph 9.0 mph 38% 0.00 in 0.00 W/m2
03:30 55.7 °F 30.5 °F 29.98 in ESE 4.0 mph 13.0 mph 38% 0.00 in 0.00 W/m2
03:35 55.7 °F 29.9 °F 29.98 in Calm   12.0 mph 37% 0.00 in 0.00 W/m2
03:38 55.7 °F 29.9 °F 29.98 in East 4.0 mph 12.0 mph 37% 0.00 in 0.00 W/m2
03:43 55.6 °F 29.8 °F 29.98 in ESE 4.0 mph 11.0 mph 37% 0.00 in 0.00 W/m2
03:48 55.5 °F 29.7 °F 29.98 in ESE 1.0 mph 9.0 mph 37% 0.00 in 0.00 W/m2
03:53 55.5 °F 29.0 °F 29.98 in Calm   9.0 mph 36% 0.00 in 0.00 W/m2
03:58 55.5 °F 29.0 °F 29.98 in East 1.0 mph 11.0 mph 36% 0.00 in 0.00 W/m2
04:03 55.5 °F 29.0 °F 29.98 in East 2.0 mph 13.0 mph 36% 0.00 in 0.00 W/m2
04:07 55.5 °F 29.0 °F 29.98 in ESE 4.0 mph 11.0 mph 36% 0.00 in 0.00 W/m2
04:12 55.5 °F 29.0 °F 29.98 in Calm   11.0 mph 36% 0.00 in 0.00 W/m2
04:17 55.5 °F 29.0 °F 29.98 in ENE 11.0 mph 12.0 mph 36% 0.00 in 0.00 W/m2
04:23 55.6 °F 29.1 °F 29.98 in East 11.0 mph 12.0 mph 36% 0.00 in 0.00 W/m2
04:28 55.6 °F 28.4 °F 29.98 in ESE 5.0 mph 12.0 mph 35% 0.00 in 0.00 W/m2
04:33 55.6 °F 28.4 °F 29.98 in East 8.0 mph 8.0 mph 35% 0.00 in 0.00 W/m2
04:38 55.6 °F 28.4 °F 29.98 in East 1.0 mph 14.0 mph 35% 0.00 in 0.00 W/m2
04:43 55.5 °F 28.3 °F 29.98 in East 2.0 mph 12.0 mph 35% 0.00 in 0.00 W/m2
04:48 55.5 °F 28.3 °F 29.98 in East 4.0 mph 11.0 mph 35% 0.00 in 0.00 W/m2
04:53 55.5 °F 29.0 °F 29.98 in ESE 1.0 mph 11.0 mph 36% 0.00 in 0.00 W/m2
04:58 55.5 °F 28.3 °F 29.98 in ESE 1.0 mph 12.0 mph 35% 0.00 in 0.00 W/m2
05:08 55.5 °F 28.3 °F 29.98 in Calm   9.0 mph 35% 0.00 in 0.00 W/m2
05:13 55.5 °F 28.3 °F 29.98 in Calm   11.0 mph 35% 0.00 in 0.00 W/m2
05:18 55.5 °F 28.3 °F 29.98 in East 2.0 mph 11.0 mph 35% 0.00 in 0.00 W/m2
05:23 55.5 °F 28.3 °F 29.98 in East 2.0 mph 15.0 mph 35% 0.00 in 0.00 W/m2
05:28 55.5 °F 28.3 °F 29.98 in ESE 1.0 mph 8.0 mph 35% 0.00 in 0.00 W/m2
05:33 55.5 °F 28.3 °F 29.98 in East 6.0 mph 8.0 mph 35% 0.00 in 0.00 W/m2
05:43 55.5 °F 28.3 °F 29.98 in Calm   13.0 mph 35% 0.00 in 0.00 W/m2
05:48 55.5 °F 28.3 °F 29.98 in Calm   9.0 mph 35% 0.00 in 0.00 W/m2
05:53 55.5 °F 28.3 °F 29.98 in East 6.0 mph 14.0 mph 35% 0.00 in 0.00 W/m2
05:58 55.5 °F 28.3 °F 29.98 in East 6.0 mph 11.0 mph 35% 0.00 in 0.00 W/m2
06:03 55.5 °F 28.3 °F 29.98 in ESE 4.0 mph 12.0 mph 35% 0.00 in 0.00 W/m2
06:08 55.5 °F 28.3 °F 29.98 in ESE 1.0 mph 8.0 mph 35% 0.00 in 0.00 W/m2
06:13 55.5 °F 28.3 °F 29.99 in East 6.0 mph 12.0 mph 35% 0.00 in 0.00 W/m2
06:18 55.5 °F 28.3 °F 29.99 in ESE 9.0 mph 12.0 mph 35% 0.00 in 0.00 W/m2
06:33 55.5 °F 28.3 °F 29.99 in East 5.0 mph 16.0 mph 35% 0.00 in 0.00 W/m2
06:38 55.5 °F 28.3 °F 29.99 in East 4.0 mph 14.0 mph 35% 0.00 in 0.00 W/m2
06:43 55.5 °F 28.3 °F 29.99 in East 7.0 mph 13.0 mph 35% 0.00 in 0.00 W/m2
06:48 55.5 °F 27.6 °F 29.99 in East 4.0 mph 12.0 mph 34% 0.00 in 0.00 W/m2
06:53 55.5 °F 27.6 °F 29.99 in ESE 6.0 mph 13.0 mph 34% 0.00 in 0.00 W/m2
06:58 55.5 °F 27.6 °F 29.99 in ESE 8.0 mph 14.0 mph 34% 0.00 in 0.00 W/m2
07:03 55.5 °F 27.6 °F 29.99 in Calm   9.0 mph 34% 0.00 in 0.00 W/m2
07:08 55.6 °F 27.7 °F 29.99 in ESE 4.0 mph 12.0 mph 34% 0.00 in 5.00 W/m2
07:13 55.6 °F 27.7 °F 29.99 in ESE 2.0 mph 12.0 mph 34% 0.00 in 7.00 W/m2
07:18 55.6 °F 27.7 °F 29.99 in ESE 8.0 mph 9.0 mph 34% 0.00 in 12.00 W/m2
07:23 55.6 °F 27.7 °F 29.99 in ESE 6.0 mph 14.0 mph 34% 0.00 in 16.00 W/m2
07:28 55.7 °F 27.8 °F 29.99 in ESE 7.0 mph 13.0 mph 34% 0.00 in 21.00 W/m2
07:33 55.7 °F 27.8 °F 29.99 in East 4.0 mph 9.0 mph 34% 0.00 in 26.00 W/m2
07:38 55.7 °F 27.8 °F 29.99 in ESE 7.0 mph 12.0 mph 34% 0.00 in 33.00 W/m2
07:43 55.6 °F 27.7 °F 29.99 in East 9.0 mph 12.0 mph 34% 0.00 in 40.00 W/m2
07:48 55.6 °F 27.7 °F 29.99 in ESE 2.0 mph 13.0 mph 34% 0.00 in 47.00 W/m2
07:53 55.6 °F 28.4 °F 29.99 in East 6.0 mph 14.0 mph 35% 0.00 in 62.00 W/m2
07:58 55.6 °F 28.4 °F 29.99 in Calm   14.0 mph 35% 0.00 in 76.00 W/m2
08:03 55.6 °F 29.1 °F 29.99 in ESE 1.0 mph 13.0 mph 36% 0.00 in 95.00 W/m2
08:08 55.6 °F 28.4 °F 29.99 in ESE 6.0 mph 11.0 mph 35% 0.00 in 105.00 W/m2
08:14 55.7 °F 29.2 °F 29.99 in Calm   13.0 mph 36% 0.00 in 121.00 W/m2
08:19 55.7 °F 29.2 °F 29.99 in East 7.0 mph 14.0 mph 36% 0.00 in 142.00 W/m2
08:20 55.8 °F 29.3 °F 29.99 in Calm   15.0 mph 36% 0.00 in 151.00 W/m2
08:25 55.8 °F 29.3 °F 29.99 in East 6.0 mph 11.0 mph 36% 0.00 in 167.00 W/m2
08:30 55.9 °F 29.4 °F 29.99 in ESE 9.0 mph 15.0 mph 36% 0.00 in 183.00 W/m2
08:35 56.0 °F 29.4 °F 29.99 in Calm   16.0 mph 36% 0.00 in 204.00 W/m2
08:40 56.2 °F 29.6 °F 29.99 in Calm   13.0 mph 36% 0.00 in 221.00 W/m2
08:45 56.3 °F 29.7 °F 29.99 in Calm   12.0 mph 36% 0.00 in 236.00 W/m2
08:50 56.5 °F 29.9 °F 29.99 in Calm   10.0 mph 36% 0.00 in 253.00 W/m2
08:55 56.6 °F 30.0 °F 29.99 in Calm   11.0 mph 36% 0.00 in 267.00 W/m2
09:00 56.8 °F 30.1 °F 29.99 in ESE 1.0 mph 13.0 mph 36% 0.00 in 262.00 W/m2
09:05 56.9 °F 30.9 °F 29.99 in Calm   11.0 mph 37% 0.00 in 302.00 W/m2
09:10 57.1 °F 31.1 °F 29.99 in Calm   11.0 mph 37% 0.00 in 318.00 W/m2
09:15 57.3 °F 31.3 °F 29.99 in ESE 1.0 mph 12.0 mph 37% 0.00 in 336.00 W/m2
09:20 57.5 °F 31.5 °F 29.99 in Calm   12.0 mph 37% 0.00 in 346.00 W/m2
09:25 57.8 °F 31.7 °F 29.99 in Calm   7.0 mph 37% 0.00 in 364.00 W/m2
09:30 58.0 °F 31.9 °F 29.99 in Calm   7.0 mph 37% 0.00 in 380.00 W/m2
09:35 58.3 °F 32.2 °F 29.99 in Calm   8.0 mph 37% 0.00 in 392.00 W/m2
09:40 58.6 °F 32.4 °F 29.99 in Calm   8.0 mph 37% 0.00 in 410.00 W/m2
09:45 58.9 °F 32.7 °F 29.99 in SE 2.0 mph 7.0 mph 37% 0.00 in 422.00 W/m2
09:50 59.3 °F 33.7 °F 29.99 in Calm   8.0 mph 38% 0.00 in 434.00 W/m2
09:55 59.6 °F 33.3 °F 29.99 in SE 5.0 mph 8.0 mph 37% 0.00 in 452.00 W/m2
10:00 59.9 °F 32.9 °F 29.99 in SE 1.0 mph 7.0 mph 36% 0.00 in 468.00 W/m2
10:05 60.4 °F 32.7 °F 29.99 in Calm   6.0 mph 35% 0.00 in 475.00 W/m2
10:10 60.8 °F 32.3 °F 29.99 in SE 5.0 mph 7.0 mph 34% 0.00 in 485.00 W/m2
10:15 61.3 °F 33.4 °F 29.99 in Calm   7.0 mph 35% 0.00 in 496.00 W/m2
10:20 61.6 °F 32.2 °F 29.99 in Calm   8.0 mph 33% 0.00 in 506.00 W/m2
10:30 63.0 °F 31.9 °F 29.99 in South 4.0 mph 14.0 mph 31% 0.00 in 524.00 W/m2
10:35 63.6 °F 30.8 °F 29.99 in Calm   12.0 mph 29% 0.00 in 524.00 W/m2
10:40 64.0 °F 30.3 °F 30.00 in Calm   15.0 mph 28% 0.00 in 545.00 W/m2
10:45 64.5 °F 30.7 °F 30.00 in SSW 5.0 mph 6.0 mph 28% 0.00 in 552.00 W/m2
10:50 64.9 °F 31.9 °F 30.00 in SSE 9.0 mph 9.0 mph 29% 0.00 in 568.00 W/m2
10:55 65.2 °F 31.3 °F 30.00 in SSW 5.0 mph 10.0 mph 28% 0.00 in 578.00 W/m2
11:00 65.6 °F 29.8 °F 30.00 in SSW 4.0 mph 12.0 mph 26% 0.00 in 592.00 W/m2
11:05 66.1 °F 30.2 °F 30.00 in SSW 5.0 mph 7.0 mph 26% 0.00 in 606.00 W/m2
11:10 66.5 °F 29.6 °F 30.00 in SSW 8.0 mph 9.0 mph 25% 0.00 in 608.00 W/m2
11:15 66.9 °F 30.9 °F 29.99 in SSW 4.0 mph 9.0 mph 26% 0.00 in 617.00 W/m2
11:20 67.2 °F 30.2 °F 29.99 in SW 5.0 mph 13.0 mph 25% 0.00 in 629.00 W/m2
11:25 67.5 °F 29.5 °F 29.99 in SSW 5.0 mph 10.0 mph 24% 0.00 in 640.00 W/m2
11:30 67.9 °F 27.7 °F 29.99 in West 6.0 mph 10.0 mph 22% 0.00 in 638.00 W/m2
11:35 68.3 °F 29.1 °F 29.99 in Calm   10.0 mph 23% 0.00 in 638.00 W/m2
11:40 68.5 °F 27.1 °F 29.99 in SSW 4.0 mph 9.0 mph 21% 0.00 in 645.00 W/m2
11:45 68.8 °F 28.4 °F 29.99 in Calm   4.0 mph 22% 0.00 in 663.00 W/m2
11:50 69.1 °F 28.7 °F 29.99 in South 3.0 mph 10.0 mph 22% 0.00 in 650.00 W/m2
11:55 69.3 °F 27.7 °F 29.99 in SW 8.0 mph 10.0 mph 21% 0.00 in 656.00 W/m2
12:00 69.4 °F 27.8 °F 29.98 in Calm   10.0 mph 21% 0.00 in 666.00 W/m2
12:05 69.6 °F 26.8 °F 29.98 in SE 4.0 mph 12.0 mph 20% 0.00 in 657.00 W/m2
12:10 69.8 °F 28.1 °F 29.98 in SSE 1.0 mph 8.0 mph 21% 0.00 in 638.00 W/m2
12:15 70.0 °F 28.3 °F 29.98 in Calm   9.0 mph 21% 0.00 in 664.00 W/m2
12:20 70.1 °F 27.2 °F 29.98 in SW 9.0 mph 13.0 mph 20% 0.00 in 680.00 W/m2
12:25 70.3 °F 27.4 °F 29.98 in SSW 6.0 mph 13.0 mph 20% 0.00 in 615.00 W/m2
12:30 70.4 °F 26.2 °F 29.97 in South 1.0 mph 8.0 mph 19% 0.00 in 689.00 W/m2
12:35 70.5 °F 26.3 °F 29.97 in SSE 2.0 mph 11.0 mph 19% 0.00 in 680.00 W/m2
12:40 70.7 °F 26.5 °F 29.97 in Calm   11.0 mph 19% 0.00 in 686.00 W/m2
12:45 70.9 °F 26.6 °F 29.97 in South 8.0 mph 10.0 mph 19% 0.00 in 696.00 W/m2
12:50 71.1 °F 26.8 °F 29.97 in SW 4.0 mph 12.0 mph 19% 0.00 in 693.00 W/m2
12:55 71.3 °F 27.0 °F 29.97 in SW 4.0 mph 9.0 mph 19% 0.00 in 663.00 W/m2
13:00 71.5 °F 27.1 °F 29.97 in SSW 2.0 mph 12.0 mph 19% 0.00 in 689.00 W/m2
13:05 71.6 °F 27.2 °F 29.97 in Calm   8.0 mph 19% 0.00 in 682.00 W/m2
13:10 71.7 °F 26.0 °F 29.97 in Calm   13.0 mph 18% 0.00 in 668.00 W/m2
13:15 71.9 °F 24.8 °F 29.97 in Calm   12.0 mph 17% 0.00 in 686.00 W/m2
13:20 72.0 °F 26.2 °F 29.96 in South 6.0 mph 14.0 mph 18% 0.00 in 680.00 W/m2
13:25 72.3 °F 25.1 °F 29.96 in South 9.0 mph 13.0 mph 17% 0.00 in 671.00 W/m2
13:30 72.6 °F 26.7 °F 29.96 in WSW 5.0 mph 14.0 mph 18% 0.00 in 670.00 W/m2
13:35 72.6 °F 25.3 °F 29.96 in WSW 5.0 mph 12.0 mph 17% 0.00 in 663.00 W/m2
13:40 72.5 °F 25.2 °F 29.95 in WSW 5.0 mph 11.0 mph 17% 0.00 in 668.00 W/m2
13:45 72.4 °F 26.5 °F 29.95 in Calm   13.0 mph 18% 0.00 in 671.00 W/m2
13:50 72.5 °F 26.6 °F 29.95 in SW 8.0 mph 13.0 mph 18% 0.00 in 663.00 W/m2
13:55 72.7 °F 24.0 °F 29.95 in SSW 11.0 mph 16.0 mph 16% 0.00 in 659.00 W/m2
14:00 72.9 °F 25.6 °F 29.95 in SW 6.0 mph 12.0 mph 17% 0.00 in 647.00 W/m2
14:05 73.1 °F 25.7 °F 29.95 in SSE 6.0 mph 11.0 mph 17% 0.00 in 629.00 W/m2
14:06 73.1 °F 25.7 °F 29.95 in SSE 5.0 mph 10.0 mph 17% 0.00 in 629.00 W/m2
14:11 73.2 °F 27.2 °F 29.95 in Calm   2.0 mph 18% 0.00 in 615.00 W/m2
14:16 73.3 °F 28.6 °F 29.94 in SSW 8.0 mph 9.0 mph 19% 0.00 in 624.00 W/m2
14:21 73.4 °F 27.4 °F 29.94 in SSW 4.0 mph 11.0 mph 18% 0.00 in 610.00 W/m2
14:26 73.5 °F 27.4 °F 29.94 in SSW 10.0 mph 10.0 mph 18% 0.00 in 603.00 W/m2
14:31 73.6 °F 27.5 °F 29.94 in SW 1.0 mph 7.0 mph 18% 0.00 in 598.00 W/m2
14:36 73.7 °F 27.6 °F 29.94 in West 1.0 mph 9.0 mph 18% 0.00 in 594.00 W/m2
14:41 73.5 °F 26.1 °F 29.94 in SW 1.0 mph 1.0 mph 17% 0.00 in 585.00 W/m2
14:46 73.4 °F 26.0 °F 29.94 in SSE 8.0 mph 12.0 mph 17% 0.00 in 577.00 W/m2
14:51 73.3 °F 27.3 °F 29.93 in SSE 1.0 mph 4.0 mph 18% 0.00 in 571.00 W/m2
14:56 73.4 °F 28.7 °F 29.93 in Calm     19% 0.00 in 552.00 W/m2
15:01 73.2 °F 28.5 °F 29.94 in Calm   3.0 mph 19% 0.00 in 538.00 W/m2
15:06 73.1 °F 28.4 °F 29.93 in SW 1.0 mph 9.0 mph 19% 0.00 in 476.00 W/m2
15:11 73.0 °F 29.6 °F 29.93 in Calm   8.0 mph 20% 0.00 in 533.00 W/m2
15:16 72.7 °F 28.1 °F 29.93 in SW 10.0 mph 10.0 mph 19% 0.00 in 529.00 W/m2
15:23 72.6 °F 28.0 °F 29.93 in Calm   8.0 mph 19% 0.00 in 506.00 W/m2
15:28 72.6 °F 29.3 °F 29.93 in Calm   10.0 mph 20% 0.00 in 490.00 W/m2
15:33 72.6 °F 29.3 °F 29.93 in SW 7.0 mph 10.0 mph 20% 0.00 in 475.00 W/m2
15:38 72.6 °F 29.3 °F 29.93 in Calm   1.0 mph 20% 0.00 in 457.00 W/m2
15:43 72.5 °F 29.2 °F 29.93 in WSW 1.0 mph 4.0 mph 20% 0.00 in 434.00 W/m2
15:48 72.4 °F 29.1 °F 29.93 in WSW 2.0 mph 4.0 mph 20% 0.00 in 445.00 W/m2
15:53 72.3 °F 29.0 °F 29.93 in West 2.0 mph 3.0 mph 20% 0.00 in 417.00 W/m2
15:58 72.2 °F 28.9 °F 29.93 in WSW 3.0 mph 5.0 mph 20% 0.00 in 418.00 W/m2
16:03 72.0 °F 28.8 °F 29.93 in Calm   3.0 mph 20% 0.00 in 385.00 W/m2
16:08 71.9 °F 28.7 °F 29.92 in Calm   2.0 mph 20% 0.00 in 390.00 W/m2
16:13 71.8 °F 28.6 °F 29.92 in Calm   1.0 mph 20% 0.00 in 367.00 W/m2
16:18 71.7 °F 28.5 °F 29.92 in Calm   11.0 mph 20% 0.00 in 279.00 W/m2
16:21 71.6 °F 28.4 °F 29.92 in West 1.0 mph 2.0 mph 20% 0.00 in 253.00 W/m2
16:26 71.2 °F 28.1 °F 29.92 in Calm     20% 0.00 in 232.00 W/m2
16:31 71.1 °F 29.2 °F 29.92 in Calm     21% 0.00 in 188.00 W/m2
16:36 70.9 °F 29.0 °F 29.92 in Calm     21% 0.00 in 211.00 W/m2
16:41 70.5 °F 27.5 °F 29.92 in Calm     20% 0.00 in 269.00 W/m2
16:46 70.2 °F 27.3 °F 29.92 in West 4.0 mph 6.0 mph 20% 0.00 in 195.00 W/m2
16:51 69.9 °F 28.2 °F 29.91 in Calm   3.0 mph 21% 0.00 in 171.00 W/m2
16:56 69.8 °F 28.1 °F 29.92 in Calm     21% 0.00 in 153.00 W/m2
17:01 69.6 °F 30.2 °F 29.92 in Calm     23% 0.00 in 167.00 W/m2
17:06 69.5 °F 30.1 °F 29.92 in Calm   1.0 mph 23% 0.00 in 148.00 W/m2
17:11 69.3 °F 29.9 °F 29.92 in Calm     23% 0.00 in 127.00 W/m2
17:16 69.1 °F 28.7 °F 29.92 in Calm     22% 0.00 in 91.00 W/m2
17:21 69.0 °F 30.7 °F 29.91 in Calm     24% 0.00 in 83.00 W/m2
17:26 68.8 °F 30.6 °F 29.91 in Calm     24% 0.00 in 83.00 W/m2
17:31 68.6 °F 30.4 °F 29.91 in Calm     24% 0.00 in 88.00 W/m2
17:36 68.4 °F 31.2 °F 29.91 in Calm     25% 0.00 in 77.00 W/m2
17:41 68.2 °F 31.1 °F 29.91 in Calm     25% 0.00 in 72.00 W/m2
17:46 68.0 °F 30.9 °F 29.91 in Calm     25% 0.00 in 63.00 W/m2
17:51 67.7 °F 30.6 °F 29.91 in Calm     25% 0.00 in 54.00 W/m2
17:56 67.4 °F 33.2 °F 29.91 in Calm     28% 0.00 in 46.00 W/m2
18:01 66.9 °F 32.8 °F 29.91 in Calm     28% 0.00 in 37.00 W/m2
18:06 66.3 °F 33.1 °F 29.91 in Calm     29% 0.00 in 40.00 W/m2
18:11 65.6 °F 32.5 °F 29.91 in Calm     29% 0.00 in 35.00 W/m2
18:16 65.0 °F 32.8 °F 29.91 in Calm     30% 0.00 in 30.00 W/m2
18:21 64.7 °F 32.6 °F 29.91 in Calm     30% 0.00 in 21.00 W/m2
18:26 64.4 °F 32.3 °F 29.91 in Calm     30% 0.00 in 14.00 W/m2
18:31 64.1 °F 32.1 °F 29.91 in Calm     30% 0.00 in 11.00 W/m2
18:36 63.7 °F 32.5 °F 29.91 in Calm     31% 0.00 in 9.00 W/m2
18:41 63.4 °F 32.3 °F 29.91 in Calm     31% 0.00 in 7.00 W/m2
18:46 63.2 °F 32.1 °F 29.91 in Calm     31% 0.00 in 0.00 W/m2
18:51 62.9 °F 31.8 °F 29.91 in Calm     31% 0.00 in 0.00 W/m2
18:56 62.5 °F 31.5 °F 29.91 in Calm     31% 0.00 in 0.00 W/m2
19:01 62.1 °F 31.1 °F 29.91 in Calm     31% 0.00 in 0.00 W/m2
19:06 61.7 °F 31.6 °F 29.91 in Calm     32% 0.00 in 0.00 W/m2
19:11 61.4 °F 31.3 °F 29.91 in Calm     32% 0.00 in 0.00 W/m2
19:16 61.1 °F 31.0 °F 29.91 in Calm     32% 0.00 in 0.00 W/m2
19:21 60.8 °F 30.8 °F 29.91 in Calm     32% 0.00 in 0.00 W/m2
19:26 60.6 °F 30.6 °F 29.91 in Calm     32% 0.00 in 0.00 W/m2
19:31 60.4 °F 31.2 °F 29.91 in Calm     33% 0.00 in 0.00 W/m2
19:36 60.2 °F 31.0 °F 29.91 in Calm     33% 0.00 in 0.00 W/m2
19:41 60.0 °F 30.8 °F 29.91 in Calm     33% 0.00 in 0.00 W/m2
19:46 59.8 °F 31.4 °F 29.91 in Calm     34% 0.00 in 0.00 W/m2
19:51 59.6 °F 31.2 °F 29.91 in Calm     34% 0.00 in 0.00 W/m2
19:56 59.5 °F 31.1 °F 29.91 in Calm     34% 0.00 in 0.00 W/m2
20:01 59.4 °F 31.0 °F 29.91 in Calm     34% 0.00 in 0.00 W/m2
20:06 59.2 °F 30.9 °F 29.91 in Calm     34% 0.00 in 0.00 W/m2
20:17 58.9 °F 31.3 °F 29.91 in Calm     35% 0.00 in 0.00 W/m2
20:21 58.9 °F 31.3 °F 29.91 in Calm     35% 0.00 in 0.00 W/m2
20:22 58.8 °F 31.2 °F 29.91 in Calm     35% 0.00 in 0.00 W/m2
20:24 58.8 °F 31.2 °F 29.91 in Calm     35% 0.00 in 0.00 W/m2
20:26 58.7 °F 31.1 °F 29.91 in Calm     35% 0.00 in 0.00 W/m2
20:31 58.6 °F 31.8 °F 29.90 in Calm     36% 0.00 in 0.00 W/m2
20:36 58.5 °F 31.7 °F 29.91 in Calm     36% 0.00 in 0.00 W/m2
20:41 58.4 °F 31.6 °F 29.91 in Calm     36% 0.00 in 0.00 W/m2
20:52 58.4 °F 31.6 °F 29.91 in Calm     36% 0.00 in 0.00 W/m2
20:57 58.3 °F 32.2 °F 29.91 in Calm     37% 0.00 in 0.00 W/m2
21:02 58.2 °F 32.1 °F 29.91 in Calm     37% 0.00 in 0.00 W/m2
21:07 58.2 °F 32.1 °F 29.91 in Calm     37% 0.00 in 0.00 W/m2
21:12 58.1 °F 31.3 °F 29.91 in Calm     36% 0.00 in 0.00 W/m2
21:17 58.1 °F 31.3 °F 29.91 in Calm   2.0 mph 36% 0.00 in 0.00 W/m2
21:22 58.1 °F 31.3 °F 29.91 in Calm   2.0 mph 36% 0.00 in 0.00 W/m2
21:27 58.0 °F 31.2 °F 29.91 in Calm   3.0 mph 36% 0.00 in 0.00 W/m2
21:32 58.0 °F 30.5 °F 29.91 in South 1.0 mph 4.0 mph 35% 0.00 in 0.00 W/m2
21:37 58.0 °F 30.5 °F 29.91 in Calm   6.0 mph 35% 0.00 in 0.00 W/m2
21:42 58.0 °F 30.5 °F 29.91 in ESE 1.0 mph 5.0 mph 35% 0.00 in 0.00 W/m2
21:47 58.0 °F 30.5 °F 29.91 in ESE 1.0 mph 5.0 mph 35% 0.00 in 0.00 W/m2
21:57 57.9 °F 30.4 °F 29.91 in ESE 2.0 mph 6.0 mph 35% 0.00 in 0.00 W/m2
22:02 57.8 °F 30.4 °F 29.91 in Calm   2.0 mph 35% 0.00 in 0.00 W/m2
22:07 57.8 °F 30.4 °F 29.91 in Calm   4.0 mph 35% 0.00 in 0.00 W/m2
22:12 57.7 °F 30.3 °F 29.91 in Calm   2.0 mph 35% 0.00 in 0.00 W/m2
22:17 57.6 °F 30.2 °F 29.91 in Calm   6.0 mph 35% 0.00 in 0.00 W/m2
22:22 57.5 °F 30.1 °F 29.91 in Calm   5.0 mph 35% 0.00 in 0.00 W/m2
22:27 57.4 °F 30.0 °F 29.91 in Calm   6.0 mph 35% 0.00 in 0.00 W/m2
22:32 57.3 °F 29.9 °F 29.91 in ESE 2.0 mph 6.0 mph 35% 0.00 in 0.00 W/m2
22:37 57.3 °F 29.9 °F 29.91 in ESE 1.0 mph 5.0 mph 35% 0.00 in 0.00 W/m2
22:42 57.2 °F 29.8 °F 29.91 in ESE 4.0 mph 4.0 mph 35% 0.00 in 0.00 W/m2
22:47 57.2 °F 29.8 °F 29.91 in East 1.0 mph 5.0 mph 35% 0.00 in 0.00 W/m2
22:52 57.1 °F 29.7 °F 29.91 in East 2.0 mph 6.0 mph 35% 0.00 in 0.00 W/m2
22:57 57.1 °F 29.7 °F 29.91 in Calm   6.0 mph 35% 0.00 in 0.00 W/m2
23:02 57.0 °F 29.6 °F 29.91 in ESE 5.0 mph 7.0 mph 35% 0.00 in 0.00 W/m2
23:07 57.0 °F 29.6 °F 29.91 in ESE 4.0 mph 4.0 mph 35% 0.00 in 0.00 W/m2
23:12 56.9 °F 29.5 °F 29.91 in Calm   8.0 mph 35% 0.00 in 0.00 W/m2
23:17 56.9 °F 29.5 °F 29.91 in Calm   11.0 mph 35% 0.00 in 0.00 W/m2
23:22 56.9 °F 29.5 °F 29.91 in ESE 2.0 mph 8.0 mph 35% 0.00 in 0.00 W/m2
23:27 56.8 °F 29.5 °F 29.91 in Calm   8.0 mph 35% 0.00 in 0.00 W/m2
23:32 56.8 °F 29.5 °F 29.91 in ESE 2.0 mph 9.0 mph 35% 0.00 in 0.00 W/m2
23:37 56.7 °F 29.4 °F 29.91 in ESE 6.0 mph 7.0 mph 35% 0.00 in 0.00 W/m2
23:42 56.6 °F 29.3 °F 29.91 in ESE 7.0 mph 7.0 mph 35% 0.00 in 0.00 W/m2
23:47 56.6 °F 29.3 °F 29.91 in East 4.0 mph 7.0 mph 35% 0.00 in 0.00 W/m2
23:52 56.4 °F 29.1 °F 29.91 in ESE 2.0 mph 8.0 mph 35% 0.00 in 0.00 W/m2
23:57 56.3 °F 29.0 °F 29.90 in Calm   7.0 mph 35% 0.00 in 0.00 W/m2
Foresthill Weather
 WU-history PHP script courtesy of   Juneau County Weather.
powered by Cumulus v1.9.3 (1059)
Ambient Weather VWS v14.00
Top Contact Website Map Copyright © 2007 - 2018 Foresthillweather.com Never base important decisions on this or any weather information obtained from the Internet